Temperature
15 15 15 15 16 16 15 16 16 15 15 14 14 14 14 14 14 14 14 14 14 14 14 13 13 13 13 13 13 13 12 12 12 12 12 13 12 12 12 12 12 12 11
15 15 15 15 15 15 15 15 15 14 14 14 14 14 14 14 14 14 13 13 13 13 13 13 13 13 13 12 12 12 12 12 12 12 12 12 12 12 12 12 12 11 11
15 15 15 15 15 15 15 14 14 14 14 14 14 14 14 14 13 13 13 13 13 13 13 13 13 12 12 12 12 12 11 11 11 11 11 11 11 11 11 11 11 11 11
14 14 14 14 14 14 14 14 14 14 14 14 14 13 13 13 13 13 13 13 13 13 13 13 12 12 12 12 12 11 11 11 11 11 11 10 10 10 11 11 11 11 10
14 14 14 14 14 14 14 13 13 13 13 13 13 13 13 13 13 13 13 13 13 13 12 12 12 12 12 12 12 11 11 11 11 10 10 10 10 10 10 10 10 10 10
14 14 14 14 14 14 14 13 13 13 13 13 13 13 13 13 13 13 13 13 13 12 12 12 12 12 11 11 11 11 11 11 11 10 10 10 10 10 10 10 9 9 9
14 14 14 14 14 14 14 13 13 13 13 13 13 13 13 13 13 13 13 13 12 12 12 11 11 11 11 11 11 11 11 11 11 10 10 10 9 9 9 9 9 9 9
14 14 14 14 14 14 14 13 13 13 13 13 12 12 12 12 13 13 13 12 12 12 11 11 11 11 10 10 10 10 10 10 10 10 10 10 9 9 9 9 8 8 8
15 14 14 14 14 14 14 13 13 13 12 12 12 11 11 11 12 12 12 12 12 11 11 10 10 10 10 10 10 10 10 10 10 10 10 10 9 9 9 9 8 8 8
15 15 14 14 14 14 13 13 13 13 12 12 11 11 11 11 10 11 11 11 11 11 10 10 10 9 9 9 9 9 9 9 9 9 9 9 9 9 9 9 8 8 8
14 14 14 14 14 13 13 13 12 12 12 11 11 10 10 10 10 10 10 10 10 10 10 10 9 9 9 9 8 8 8 8 8 8 9 9 9 9 8 8 8 8 7
14 14 14 13 13 13 12 12 12 11 11 10 10 10 9 9 9 9 9 9 9 9 9 9 9 8 8 8 8 8 7 7 7 8 8 8 8 8 8 8 8 8 7
13 13 13 12 12 12 12 11 11 11 10 10 9 9 9 9 9 9 9 9 9 9 8 8 8 8 7 7 7 7 7 7 7 7 7 7 7 7 7 7 7 7 7
12 12 12 11 11 11 11 10 10 10 9 9 9 9 8 8 8 8 8 8 8 8 8 8 7 7 7 7 6 6 6 6 6 6 6 6 6 7 7 7 7 7 7
12 11 11 10 10 10 10 9 9 9 8 8 8 8 8 8 7 7 7 7 7 7 7 7 6 6 6 6 5 5 5 5 5 6 6 6 6 6 6 6 6 6 6
11 10 10 9 9 9 8 8 8 7 7 7 7 7 7 7 7 7 7 6 6 6 6 6 6 6 5 5 5 5 5 5 5 5 5 5 5 5 5 5 5 5 5
10 9 9 8 8 8 8 7 7 7 6 6 6 6 6 6 6 6 6 6 6 5 5 5 5 5 5 4 4 4 4 4 4 4 4 4 4 4 4 4 4 4 4
9 8 8 7 7 7 7 6 6 6 6 5 5 5 5 5 5 5 5 5 5 5 5 4 4 4 4 4 4 3 3 3 3 3 3 3 3 3 3 3 3 3 3
8 7 7 6 6 6 6 6 5 5 5 5 5 4 4 4 4 4 4 4 4 4 4 4 4 3 3 3 3 3 2 2 2 2 2 2 2 2 2 2 2 2 2
7 6 6 5 5 5 5 5 5 4 4 4 4 4 4 4 3 3 3 3 3 3 3 3 3 3 2 2 2 2 2 2 2 1 1 1 1 2 2 2 2 2 2
5 5 4 4 4 4 4 4 4 4 3 3 3 3 3 3 3 3 3 3 3 2 2 2 2 2 2 1 1 1 1 1 1 1 1 1 1 1 1 1 1 1 1
4 3 3 3 3 3 3 3 3 3 2 2 2 2 2 2 2 2 2 2 2 2 2 1 1 1 1 1 0 0 0 0 -0 -0 0 -0 -0 -0 -0 0 0 0 0
3 2 2 2 2 2 2 2 2 2 2 2 2 2 2 2 2 2 2 2 2 1 1 1 1 0 0 0 -0 -0 -0 -1 -1 -1 -1 -1 -1 -1 -1 -1 -1 -1 -1
2 1 1 1 1 1 1 1 1 1 1 1 1 1 1 1 1 1 1 1 1 1 0 0 -0 -0 -1 -1 -1 -1 -1 -1 -1 -2 -2 -2 -2 -2 -2 -1 -1 -1 -1
1 1 0 0 0 0 1 1 1 1 1 1 1 1 1 1 1 1 1 1 0 0 -0 -1 -1 -1 -1 -1 -1 -1 -1 -1 -2 -2 -2 -3 -2 -2 -2 -2 -2 -2 -2
1 0 0 -0 -0 0 0 0 0 1 1 1 1 0 0 0 0 0 0 0 -0 -0 -1 -1 -1 -1 -1 -2 -2 -2 -2 -2 -3 -3 -3 -3 -3 -3 -3 -3 -3 -3 -3
Wind_Speed
4 5 5 6 7 7 7 6 7 7 5 6 6 6 6 8 9 9 8 12 11 11 11 11 11 10 10 9 8 6 5 4 3 2 1 0 1 2 3 4 5 5 6
5 3 3 4 4 4 4 6 6 5 4 4 4 5 7 9 9 9 8 12 14 14 14 14 14 13 13 12 11 10 9 8 7 5 4 3 2 1 1 2 3 4 4
5 4 2 2 4 6 7 6 6 3 2 2 3 6 8 8 8 9 10 10 12 15 17 16 15 15 15 14 14 13 12 12 11 9 8 7 5 4 3 2 2 2 3
8 6 3 3 6 6 5 2 2 3 3 4 4 4 4 5 7 9 10 10 10 11 14 16 16 15 15 15 15 14 14 14 14 13 12 10 9 8 7 5 4 3 3
8 7 4 5 6 4 3 2 3 3 4 4 4 4 4 4 5 8 8 11 11 10 10 10 13 15 15 14 14 14 14 14 14 15 15 14 13 12 10 9 8 7 6
6 6 4 4 4 2 2 3 4 4 4 4 4 5 5 6 5 6 7 9 9 9 8 6 6 8 11 12 12 12 13 13 13 14 16 17 17 15 14 13 11 10 9
5 4 2 3 3 3 3 4 3 4 4 3 3 5 6 8 9 8 5 4 3 3 4 4 3 3 3 5 6 8 9 11 12 12 14 16 17 18 18 16 15 14 12
2 2 2 1 1 2 4 4 3 3 3 2 3 3 4 4 5 6 4 3 1 0 2 3 2 2 1 1 1 3 6 8 10 10 11 13 16 17 19 19 18 17 15
1 1 1 1 2 2 3 4 4 4 4 4 4 4 3 4 4 3 1 1 1 1 1 3 4 3 3 3 4 4 4 6 8 9 10 11 12 16 19 19 20 20 19
2 3 3 2 2 2 2 3 3 3 3 4 3 4 5 4 3 4 3 1 1 0 1 2 3 4 4 6 7 7 6 6 6 8 9 10 10 12 15 18 19 20 20
4 4 3 3 2 2 3 3 3 3 3 4 4 3 4 4 5 5 4 3 2 1 1 2 4 6 8 9 9 9 9 8 8 8 9 9 10 10 11 14 16 18 19
3 4 3 3 3 2 3 3 3 4 4 4 4 3 3 3 3 4 5 4 3 1 2 3 4 6 8 10 9 9 10 10 9 9 9 9 9 9 8 8 12 15 17
3 3 3 3 2 3 3 3 3 4 3 4 4 3 3 3 2 2 3 3 2 1 2 3 4 7 8 10 9 9 10 10 10 10 9 9 9 8 7 6 6 9 12
4 4 3 3 3 3 4 3 3 3 2 3 3 3 2 2 2 1 1 1 2 1 1 2 3 7 8 9 10 10 9 11 10 10 10 10 9 8 6 4 2 3 7
3 4 2 2 2 3 3 3 2 2 2 1 2 2 1 1 2 2 1 0 1 2 2 2 3 4 7 9 10 10 9 10 11 11 11 11 10 8 7 5 4 4 5
3 2 1 1 2 2 3 2 1 1 1 1 1 2 2 2 2 2 2 2 1 1 2 2 3 3 5 6 8 9 9 10 11 12 12 12 12 12 10 9 7 7 7
3 2 2 2 2 2 3 2 1 2 1 2 2 3 3 4 3 3 3 2 2 2 1 2 2 3 3 4 5 7 8 8 9 11 11 11 11 11 10 9 9 8 6
3 2 2 2 2 3 3 3 2 3 3 3 3 4 4 3 4 4 3 3 3 2 1 2 2 2 3 3 3 3 4 6 7 9 9 9 10 10 9 8 7 7 6
2 2 2 3 3 3 3 4 3 4 4 5 5 5 4 5 4 4 4 3 2 2 2 3 2 2 2 1 2 2 3 3 4 6 7 8 8 8 8 7 6 5 5
2 2 3 3 3 3 3 3 3 4 5 6 6 6 6 5 4 4 4 4 3 3 3 3 3 2 1 1 2 2 2 3 2 5 6 6 6 6 6 6 5 5 4
2 2 2 2 2 2 2 3 3 4 5 5 5 6 6 7 8 6 5 4 4 3 3 3 2 2 1 2 2 2 2 2 2 3 4 4 4 3 3 3 4 4 4
2 2 2 2 2 2 4 3 3 3 4 5 5 4 5 5 7 8 9 9 7 4 3 2 1 2 1 2 2 2 2 2 2 3 4 3 2 1 1 2 2 3 4
3 3 2 3 4 4 4 4 4 4 4 4 4 3 3 4 5 3 5 7 8 8 6 3 3 2 2 2 2 2 2 1 2 2 2 3 3 2 2 1 1 2 3
4 3 3 3 4 4 5 5 5 5 4 3 3 3 3 3 3 3 4 4 3 4 5 5 4 4 4 3 2 1 0 2 3 2 1 1 3 3 3 4 2 1 2
4 3 3 3 4 4 5 5 5 3 3 3 2 2 2 3 3 3 2 1 1 1 3 4 4 3 2 3 3 2 2 3 2 2 2 1 2 3 3 2 1 1 2
4 4 4 3 4 4 7 6 4 2 3 3 3 2 2 2 3 1 1 1 1 1 1 1 0 1 1 1 1 2 2 2 0 2 2 2 2 3 4 3 3 5 6
Wind_Direction
178 184 192 181 201 202 188 206 235 243 229 239 238 242 258 258 250 238 219 210 216 224 233 244 248 246 241 240 239 238 234 233 237 236 241 275 59 63 66 66 64 65 69
182 167 199 186 214 217 221 220 236 240 237 246 258 266 264 268 267 259 239 221 222 227 232 239 245 249 248 244 241 237 232 230 231 231 230 230 224 202 126 97 87 82 82
182 174 222 197 213 221 229 234 262 272 276 274 268 264 261 262 268 271 265 242 226 227 233 238 243 247 250 251 248 243 235 229 226 227 226 227 225 221 214 193 154 123 108
188 189 206 221 228 229 223 218 244 269 261 255 257 264 264 265 264 268 272 265 243 229 230 236 242 246 250 254 255 252 243 233 226 224 223 224 223 221 219 212 201 190 172
193 193 206 224 233 232 224 227 230 240 258 263 266 272 275 271 263 265 262 263 258 242 228 232 240 245 249 254 260 260 254 243 232 226 224 222 221 219 219 217 213 208 199
196 199 206 227 240 227 234 236 240 243 247 259 274 277 270 262 256 251 250 255 258 243 224 226 235 245 248 252 261 267 267 259 247 235 228 225 223 221 220 219 216 214 209
192 198 206 227 236 237 242 248 251 255 254 253 275 285 270 254 248 244 231 232 246 228 192 198 209 222 260 261 262 275 282 278 268 255 242 232 226 224 221 220 218 216 214
172 186 208 230 244 254 265 267 266 259 254 226 225 275 295 297 269 243 215 197 203 160 142 145 128 116 85 53 353 312 304 301 292 279 265 250 237 230 225 222 220 217 216
177 164 237 270 268 245 252 261 264 256 254 247 217 223 257 271 322 323 256 175 183 170 148 121 105 84 68 68 60 32 357 331 314 302 288 274 257 242 231 226 222 219 216
91 56 25 353 330 310 291 284 284 274 260 260 256 233 230 238 265 296 310 308 323 16 57 87 91 82 72 77 65 42 21 356 331 315 306 296 282 265 246 234 226 220 216
102 69 24 1 345 330 319 312 304 292 271 261 259 259 257 257 240 243 269 283 303 350 68 65 69 66 62 72 58 43 36 21 360 339 322 311 302 291 272 249 232 223 216
116 93 48 15 3 358 339 327 314 300 289 282 276 265 253 248 244 239 248 250 249 245 77 62 60 61 64 67 54 46 41 27 11 357 343 331 326 321 307 279 242 229 221
105 88 58 22 7 353 337 327 312 300 301 294 289 286 287 286 287 267 255 263 252 214 115 69 50 58 60 61 45 45 40 27 16 6 356 349 348 344 333 310 263 230 218
88 73 51 19 0 353 339 329 309 297 304 303 306 311 308 340 345 335 298 281 276 254 171 127 60 50 53 56 40 45 41 32 26 20 15 10 5 356 346 334 319 205 199
82 64 41 10 0 353 342 328 311 318 335 342 350 345 358 6 1 354 348 331 220 232 229 140 96 41 46 57 43 47 43 37 35 34 31 29 26 26 29 38 68 111 133
76 62 36 9 1 353 342 336 327 358 23 32 26 29 41 18 18 13 6 3 14 207 203 96 91 60 44 52 48 46 42 41 42 43 41 39 39 42 47 55 69 87 104
71 52 33 17 13 2 347 352 24 39 63 71 57 66 58 40 41 25 22 28 33 37 164 112 92 65 55 47 42 41 43 45 43 42 40 41 40 40 46 56 59 68 78
76 62 41 28 28 19 10 23 52 48 64 76 66 71 65 58 50 33 37 43 41 33 84 131 98 73 61 47 43 38 38 47 45 41 39 41 42 42 44 48 56 61 67
83 73 63 50 43 36 31 35 56 65 65 64 61 64 61 68 59 46 47 47 42 43 56 100 101 87 67 33 42 40 38 41 38 36 34 34 35 36 39 42 46 54 55
92 82 80 73 65 53 48 48 63 82 80 71 63 59 56 61 59 54 52 36 41 58 70 90 101 96 83 6 50 38 21 11 12 27 21 16 23 31 32 36 41 41 35
112 106 110 115 103 86 71 69 74 97 102 96 82 74 70 70 66 63 63 43 42 57 70 84 94 84 71 49 41 20 11 342 7 27 11 348 347 3 12 31 35 26 12
144 139 131 124 113 102 105 102 105 100 105 108 104 95 89 70 73 70 69 62 59 67 71 71 92 106 90 68 51 31 26 25 342 354 13 327 336 353 2 78 27 1 345
158 150 138 126 116 118 129 122 112 103 102 104 107 100 99 91 75 63 70 70 62 59 59 77 85 88 88 63 73 40 32 22 274 285 11 323 333 342 326 3 8 345 329
155 152 146 134 127 135 138 132 122 107 108 107 105 107 113 112 91 74 73 71 71 61 56 61 76 70 76 66 68 80 278 334 301 301 87 325 324 329 329 319 278 267 305
158 160 154 150 146 151 158 152 141 136 141 147 139 116 103 125 121 98 87 81 90 121 101 88 83 77 60 44 37 50 40 38 348 336 29 36 327 330 325 318 265 247 287
170 167 168 173 174 180 180 176 173 166 165 169 175 177 169 151 153 130 94 114 113 136 114 115 299 246 218 194 68 98 124 120 54 310 355 37 4 4 337 317 331 323 307
Height
1565 1566 1567 1568 1569 1569 1570 1571 1571 1572 1572 1572 1572 1572 1572 1571 1571 1571 1570 1569 1568 1568 1567 1566 1565 1564 1563 1562 1562 1561 1561 1560 1559 1559 1558 1557 1557 1556 1556 1556 1556 1556 1555
1564 1565 1566 1567 1568 1568 1569 1569 1570 1570 1570 1570 1570 1570 1570 1569 1569 1569 1568 1566 1566 1565 1564 1563 1562 1562 1561 1560 1559 1559 1559 1558 1558 1557 1557 1556 1556 1555 1555 1555 1555 1555 1555
1562 1563 1564 1565 1566 1567 1567 1568 1568 1568 1568 1568 1568 1567 1567 1567 1566 1566 1565 1564 1563 1562 1561 1560 1560 1559 1558 1558 1557 1556 1556 1556 1556 1555 1555 1555 1555 1554 1554 1554 1553 1553 1554
1560 1561 1562 1563 1564 1565 1565 1565 1566 1566 1565 1565 1565 1565 1564 1563 1563 1562 1561 1561 1559 1558 1557 1557 1556 1556 1555 1554 1554 1553 1553 1553 1553 1553 1553 1553 1553 1553 1552 1552 1552 1552 1552
1558 1559 1560 1561 1562 1562 1563 1563 1563 1563 1563 1562 1562 1561 1560 1559 1559 1558 1557 1556 1555 1554 1553 1553 1552 1551 1551 1550 1550 1550 1549 1549 1549 1549 1550 1550 1550 1550 1550 1550 1550 1551 1551
1556 1557 1558 1559 1559 1560 1560 1560 1560 1560 1559 1559 1558 1556 1555 1555 1554 1553 1552 1551 1551 1550 1549 1549 1548 1547 1547 1546 1546 1545 1545 1545 1545 1545 1546 1546 1547 1547 1548 1548 1548 1548 1549
1553 1554 1555 1556 1556 1556 1556 1556 1556 1556 1555 1555 1553 1551 1550 1549 1548 1547 1547 1547 1547 1546 1546 1545 1544 1543 1543 1542 1542 1541 1541 1541 1542 1541 1541 1542 1542 1543 1544 1544 1545 1546 1546
1550 1551 1551 1552 1552 1552 1552 1552 1552 1551 1551 1551 1550 1548 1545 1544 1543 1543 1543 1543 1543 1543 1542 1541 1540 1540 1539 1538 1538 1538 1537 1537 1537 1537 1537 1538 1538 1538 1539 1540 1541 1542 1543
1546 1547 1547 1548 1548 1548 1547 1547 1547 1547 1546 1546 1546 1545 1543 1541 1540 1540 1540 1540 1540 1539 1539 1538 1537 1536 1536 1535 1534 1533 1533 1533 1533 1533 1533 1533 1533 1534 1534 1535 1536 1537 1539
1542 1543 1543 1543 1543 1543 1542 1542 1542 1541 1541 1540 1540 1540 1540 1539 1538 1535 1536 1536 1536 1536 1535 1534 1533 1533 1532 1531 1530 1530 1529 1529 1528 1528 1528 1528 1528 1529 1529 1530 1531 1532 1533
1538 1538 1539 1538 1538 1537 1537 1536 1536 1535 1535 1534 1534 1534 1534 1534 1533 1533 1531 1531 1532 1532 1531 1530 1530 1529 1528 1527 1526 1526 1525 1525 1524 1524 1523 1523 1523 1524 1524 1524 1525 1527 1528
1532 1533 1533 1533 1532 1532 1531 1531 1530 1530 1529 1529 1528 1528 1529 1528 1528 1528 1527 1526 1527 1527 1527 1526 1526 1525 1524 1523 1522 1522 1521 1521 1520 1519 1519 1518 1518 1518 1518 1519 1520 1522 1523
1527 1527 1528 1527 1527 1526 1526 1525 1524 1524 1523 1523 1523 1523 1523 1523 1523 1523 1522 1522 1522 1522 1522 1522 1522 1521 1520 1520 1519 1518 1517 1517 1516 1515 1514 1514 1513 1513 1514 1514 1515 1516 1518
1522 1522 1522 1522 1521 1521 1520 1519 1519 1518 1518 1518 1517 1517 1517 1517 1518 1518 1518 1518 1518 1518 1518 1518 1517 1517 1516 1516 1515 1514 1513 1513 1512 1511 1510 1510 1509 1509 1509 1510 1511 1512 1514
1517 1517 1517 1517 1516 1516 1515 1514 1514 1513 1513 1513 1512 1512 1512 1512 1512 1513 1513 1514 1515 1514 1514 1514 1513 1513 1513 1513 1512 1511 1510 1509 1508 1507 1507 1506 1506 1505 1505 1506 1507 1508 1510
1512 1512 1512 1512 1511 1510 1510 1509 1509 1508 1508 1508 1508 1507 1507 1507 1507 1508 1508 1509 1509 1510 1510 1510 1509 1510 1509 1509 1508 1507 1506 1505 1505 1504 1504 1503 1503 1502 1502 1503 1504 1505 1507
1508 1507 1507 1507 1506 1505 1505 1504 1504 1504 1503 1503 1503 1503 1503 1503 1503 1503 1504 1504 1504 1505 1505 1506 1506 1505 1505 1505 1504 1504 1503 1502 1501 1501 1501 1500 1500 1500 1501 1501 1502 1503 1505
1503 1502 1502 1502 1501 1501 1500 1500 1499 1499 1499 1499 1499 1499 1499 1499 1499 1499 1499 1500 1500 1500 1501 1501 1501 1502 1501 1501 1501 1500 1500 1499 1499 1498 1498 1498 1498 1498 1499 1499 1500 1501 1502
1498 1498 1497 1497 1496 1496 1496 1495 1495 1495 1495 1495 1495 1495 1495 1495 1495 1495 1496 1496 1496 1496 1497 1497 1497 1498 1498 1498 1497 1497 1497 1496 1496 1496 1496 1496 1496 1496 1496 1496 1497 1498 1499
1494 1493 1492 1492 1492 1492 1492 1491 1491 1491 1491 1491 1492 1492 1492 1492 1492 1492 1493 1493 1493 1493 1493 1494 1494 1494 1494 1494 1494 1494 1494 1494 1493 1493 1493 1493 1493 1493 1493 1493 1494 1494 1495
1489 1488 1488 1488 1487 1487 1488 1488 1488 1488 1488 1488 1488 1489 1489 1489 1489 1490 1490 1490 1490 1491 1491 1491 1491 1491 1491 1491 1491 1490 1490 1490 1490 1490 1490 1490 1489 1489 1490 1490 1490 1490 1491
1485 1484 1484 1484 1484 1484 1484 1484 1485 1485 1485 1486 1486 1486 1487 1487 1487 1487 1487 1487 1488 1488 1488 1488 1488 1488 1488 1488 1488 1488 1487 1487 1487 1488 1487 1487 1486 1486 1486 1486 1486 1486 1486
1481 1481 1481 1481 1481 1481 1481 1482 1482 1483 1483 1484 1484 1484 1485 1485 1485 1485 1485 1485 1486 1485 1485 1486 1485 1485 1486 1485 1485 1485 1485 1485 1485 1484 1484 1484 1484 1483 1483 1483 1483 1483 1483
1477 1478 1478 1478 1478 1479 1479 1479 1480 1480 1481 1482 1482 1483 1483 1483 1483 1483 1483 1483 1483 1483 1483 1483 1483 1483 1483 1483 1483 1483 1483 1482 1482 1482 1482 1482 1481 1481 1480 1480 1480 1479 1479
1474 1475 1476 1476 1476 1477 1477 1478 1478 1479 1479 1480 1480 1480 1481 1481 1481 1481 1481 1481 1481 1481 1481 1481 1481 1481 1481 1481 1481 1481 1480 1480 1480 1480 1479 1479 1478 1478 1478 1477 1477 1477 1477
1471 1472 1473 1474 1474 1475 1475 1476 1476 1477 1477 1478 1478 1478 1479 1479 1479 1479 1479 1478 1478 1479 1479 1479 1479 1479 1479 1479 1479 1479 1478 1478 1478 1477 1477 1477 1476 1476 1475 1474 1474 1474 1474